Weather History for Mackinac Island, MI

Change the Weather History Date:

Friday, March 29, 2013

  Actual Average Record
Temperature  
Mean Temperature 32 °F -  
Max Temperature 38 °F 37 °F 54 °F (1981)
Min Temperature 27 °F 24 °F 12 °F (1974)
Degree Days  
Heating Degree Days 32    
Moisture  
Dew Point 23 °F    
Average Humidity 69    
Maximum Humidity 83    
Minimum Humidity 50    
Precipitation  
Precipitation 0.00 in - - ()
Sea Level Pressure  
Sea Level Pressure 30.22 in    
Wind  
Wind Speed 7 mph (West)    
Max Wind Speed 12 mph    
Max Gust Speed 18 mph    
Visibility 10 miles    
Events      
Averages and records for this station are not official NWS values.
T = Trace of Precipitation, MM = Missing Value Source: NWS Daily Summary

Daily Weather History Graph

Daily Weather History Graph

Search for Another Location

Airport:

Trip Planner

Search our weather history database for the weather conditions in past years. The results will help you decide how hot, cold, wet, or windy it might be!

Date:

Astronomy

Mar. 29, 2013 Rise Set
Actual Time 7:23 AM EDT 8:03 PM EDT
Civil Twilight 6:53 AM EDT 8:33 PM EDT
Nautical Twilight 6:18 AM EDT 9:09 PM EDT
Astronomical Twilight 5:41 AM EDT 9:46 PM EDT
Moon 11:13 PM EDT (3/29) 8:22 AM EDT (3/29)
Length of Visible Light 13h 39m
Length of Day
12h 39m
Waning Gibbous, 93% of the Moon is Illuminated
Mar 29
Waning Gibbous
Apr 3
Last Quarter
Apr 10
New
Apr 18
First Quarter
Apr 25
Full

Hourly Weather History & Observations

Time (EDT) Temp. Windchill Dew Point Humidity Pressure Visibility Wind Dir Wind Speed Gust Speed Precip Events Conditions
12:15 AM 30.6 °F 23.8 °F 18.0 °F 60% 30.24 in 10.0 mi WNW 6.9 mph - N/A   Clear
12:35 AM 29.7 °F 22.8 °F 18.3 °F 63% 30.24 in 10.0 mi NW 6.9 mph - N/A   Clear
12:56 AM 29.1 °F 22.1 °F 18.5 °F 65% 30.24 in 10.0 mi WNW 6.9 mph - N/A   Clear
1:15 AM 28.8 °F 21.7 °F 18.9 °F 67% 30.24 in 10.0 mi NW 6.9 mph - N/A   Clear
1:35 AM 29.1 °F 22.1 °F 19.2 °F 67% 30.24 in 10.0 mi WNW 6.9 mph - N/A   Clear
1:56 AM 28.9 °F 21.9 °F 20.1 °F 70% 30.24 in 10.0 mi WNW 6.9 mph - N/A   Clear
2:15 AM 29.3 °F 22.3 °F 20.3 °F 69% 30.24 in 10.0 mi WNW 6.9 mph - N/A   Clear
2:36 AM 28.4 °F 20.4 °F 20.5 °F 72% 30.24 in 10.0 mi WNW 8.1 mph - N/A   Clear
2:56 AM 28.4 °F 21.2 °F 21.0 °F 74% 30.24 in 10.0 mi WNW 6.9 mph - N/A   Clear
3:15 AM 28.4 °F 21.2 °F 21.7 °F 76% 30.24 in 10.0 mi WNW 6.9 mph - N/A   Clear
3:36 AM 28.9 °F 21.9 °F 21.4 °F 73% 30.24 in 10.0 mi WNW 6.9 mph - N/A   Clear
3:56 AM 28.6 °F 21.5 °F 20.7 °F 72% 30.24 in 10.0 mi WNW 6.9 mph - N/A   Clear
4:15 AM 28.4 °F 20.4 °F 20.7 °F 73% 30.23 in 10.0 mi WNW 8.1 mph - N/A   Clear
4:36 AM 28.2 °F 20.2 °F 21.7 °F 77% 30.23 in 10.0 mi WNW 8.1 mph - N/A   Clear
4:56 AM 28.2 °F 21.0 °F 22.3 °F 78% 30.24 in 10.0 mi WNW 6.9 mph - N/A   Clear
5:15 AM 28.4 °F 21.2 °F 22.6 °F 79% 30.23 in 10.0 mi WNW 6.9 mph - N/A   Clear
5:36 AM 28.4 °F 21.2 °F 22.8 °F 80% 30.23 in 10.0 mi WNW 6.9 mph - N/A   Clear
5:56 AM 28.6 °F 21.5 °F 22.8 °F 79% 30.23 in 10.0 mi WNW 6.9 mph - N/A   Clear
6:15 AM 28.2 °F 21.0 °F 22.8 °F 80% 30.23 in 10.0 mi WNW 6.9 mph - N/A   Clear
6:36 AM 28.0 °F 20.8 °F 22.6 °F 80% 30.23 in 10.0 mi WNW 6.9 mph - N/A   Clear
6:55 AM 27.7 °F 19.6 °F 22.5 °F 81% 30.23 in 10.0 mi WNW 8.1 mph - N/A   Clear
7:15 AM 27.5 °F 19.3 °F 22.6 °F 82% 30.24 in 10.0 mi West 8.1 mph - N/A   Clear
7:36 AM 27.5 °F 19.3 °F 22.6 °F 82% 30.24 in 10.0 mi WNW 8.1 mph - N/A   Clear
7:55 AM 27.5 °F 19.3 °F 22.8 °F 83% 30.25 in 10.0 mi WNW 8.1 mph - N/A   Clear
8:15 AM 28.8 °F 20.9 °F 22.6 °F 78% 30.25 in 10.0 mi WNW 8.1 mph - N/A   Clear
8:36 AM 29.8 °F 23.0 °F 22.3 °F 73% 30.25 in 10.0 mi WNW 6.9 mph - N/A   Clear
8:55 AM 30.2 °F 23.4 °F 22.6 °F 73% 30.25 in 10.0 mi West 6.9 mph - N/A   Clear
9:15 AM 30.6 °F 24.7 °F 23.4 °F 75% 30.25 in 10.0 mi West 5.8 mph - N/A   Clear
9:36 AM 31.5 °F 25.8 °F 23.5 °F 73% 30.25 in 10.0 mi West 5.8 mph - N/A   Clear
9:55 AM 32.4 °F 26.9 °F 23.5 °F 70% 30.25 in 10.0 mi West 5.8 mph - N/A   Clear
10:15 AM 32.4 °F 27.9 °F 24.8 °F 74% 30.25 in 10.0 mi West 4.6 mph - N/A   Clear
10:36 AM 32.0 °F 26.4 °F 25.7 °F 78% 30.25 in 10.0 mi West 5.8 mph - N/A   Clear
10:55 AM 32.0 °F 27.5 °F 25.7 °F 78% 30.25 in 10.0 mi WSW 4.6 mph - N/A   Clear
11:15 AM 32.2 °F 25.0 °F 26.4 °F 79% 30.25 in 10.0 mi WSW 8.1 mph - N/A   Clear
11:36 AM 32.9 °F 28.5 °F 25.9 °F 75% 30.25 in 10.0 mi SW 4.6 mph - N/A   Clear
11:55 AM 33.4 °F 27.3 °F 25.7 °F 73% 30.25 in 10.0 mi WSW 6.9 mph - N/A   Clear
12:15 PM 33.8 °F 27.7 °F 26.4 °F 74% 30.25 in 10.0 mi WSW 6.9 mph - N/A   Clear
12:36 PM 33.8 °F 29.6 °F 26.2 °F 74% 30.24 in 10.0 mi WSW 4.6 mph - N/A   Clear
12:55 PM 34.7 °F 28.8 °F 26.1 °F 71% 30.24 in 10.0 mi WSW 6.9 mph - N/A   Clear
1:16 PM 34.9 °F 29.0 °F 26.1 °F 70% 30.23 in 10.0 mi WSW 6.9 mph - N/A   Clear
1:36 PM 36.1 °F 30.6 °F 25.5 °F 65% 30.23 in 10.0 mi West 6.9 mph - N/A   Clear
1:55 PM 36.7 °F 31.2 °F 25.2 °F 63% 30.23 in 10.0 mi West 6.9 mph - N/A   Clear
2:16 PM 36.5 °F 29.2 °F 25.7 °F 65% 30.22 in 10.0 mi WSW 10.4 mph - N/A   Clear
2:35 PM 36.5 °F 30.3 °F 25.0 °F 63% 30.22 in 10.0 mi WSW 8.1 mph - N/A   Clear
2:55 PM 37.4 °F 32.1 °F 24.6 °F 60% 30.22 in 10.0 mi WSW 6.9 mph - N/A   Clear
3:16 PM 38.8 °F 31.6 °F 22.6 °F 52% 30.21 in 10.0 mi WSW 11.5 mph 16.1 mph N/A   Mostly Cloudy
3:35 PM 38.3 °F 31.9 °F 21.2 °F 50% 30.21 in 10.0 mi WSW 9.2 mph 18.4 mph N/A   Mostly Cloudy
3:55 PM 38.7 °F 31.8 °F 21.6 °F 50% 30.21 in 10.0 mi WSW 10.4 mph - N/A   Scattered Clouds
4:16 PM 38.5 °F 32.7 °F 22.3 °F 52% 30.21 in 10.0 mi WSW 8.1 mph - N/A   Clear
4:35 PM 38.3 °F 33.9 °F 23.0 °F 54% 30.20 in 10.0 mi WSW 5.8 mph - N/A   Clear
4:55 PM 38.3 °F 31.9 °F 22.8 °F 54% 30.20 in 10.0 mi WSW 9.2 mph - N/A   Clear
5:16 PM 38.3 °F 33.2 °F 22.8 °F 54% 30.20 in 10.0 mi WSW 6.9 mph - N/A   Clear
5:35 PM 38.3 °F 31.9 °F 23.0 °F 54% 30.20 in 10.0 mi WSW 9.2 mph 16.1 mph N/A   Clear
5:55 PM 38.3 °F 31.9 °F 22.6 °F 53% 30.19 in 10.0 mi WSW 9.2 mph - N/A   Clear
6:16 PM 37.8 °F 31.8 °F 23.2 °F 56% 30.19 in 10.0 mi WSW 8.1 mph - N/A   Clear
6:35 PM 37.2 °F 32.6 °F 24.1 °F 59% 30.20 in 10.0 mi WSW 5.8 mph - N/A   Clear
6:55 PM 36.5 °F 31.0 °F 24.4 °F 62% 30.20 in 10.0 mi WSW 6.9 mph - N/A   Clear
7:16 PM 35.8 °F 30.1 °F 25.3 °F 66% 30.20 in 10.0 mi West 6.9 mph - N/A   Clear
7:35 PM 34.9 °F 32.0 °F 25.5 °F 69% 30.20 in 10.0 mi WSW 3.5 mph - N/A   Clear
7:55 PM 34.3 °F - 25.0 °F 69% 30.20 in 10.0 mi Calm Calm - N/A   Clear
8:16 PM 34.0 °F 28.8 °F 24.8 °F 69% 30.20 in 10.0 mi West 5.8 mph - N/A   Clear
8:35 PM 33.4 °F 30.4 °F 24.4 °F 70% 30.20 in 10.0 mi WNW 3.5 mph - N/A   Clear
8:55 PM 33.3 °F 28.9 °F 24.4 °F 70% 30.19 in 10.0 mi West 4.6 mph - N/A   Clear
9:16 PM 33.4 °F 29.1 °F 23.7 °F 68% 30.19 in 10.0 mi West 4.6 mph - N/A   Clear
9:35 PM 32.0 °F 26.4 °F 23.7 °F 71% 30.19 in 10.0 mi WSW 5.8 mph - N/A   Clear
9:55 PM 31.1 °F 24.5 °F 23.7 °F 74% 30.19 in 10.0 mi WSW 6.9 mph - N/A   Clear
10:16 PM 31.6 °F 25.1 °F 23.2 °F 71% 30.19 in 10.0 mi WSW 6.9 mph - N/A   Clear
10:35 PM 31.1 °F 24.5 °F 22.8 °F 71% 30.20 in 10.0 mi WSW 6.9 mph - N/A   Clear
10:55 PM 31.6 °F 24.4 °F 22.5 °F 69% 30.20 in 10.0 mi WSW 8.1 mph - N/A   Clear
11:16 PM 31.1 °F 23.7 °F 22.1 °F 69% 30.19 in 10.0 mi WSW 8.1 mph - N/A   Clear
11:35 PM 31.1 °F 23.7 °F 22.3 °F 70% 30.19 in 10.0 mi West 8.1 mph - N/A   Clear
11:56 PM 31.6 °F 24.4 °F 22.1 °F 68% 30.19 in 10.0 mi WSW 8.1 mph - N/A   Clear